This is the latest recevied weather packets stored in our database for station/object NO4D. If no packets are shown the sender has not sent any weather packets the latest 10 day(s).
| Time | Temp. | Humidity | Pressure | Rain* | Wind** | Luminosity | Snow |
|---|---|---|---|---|---|---|---|
| 1777831250 | 19.44° C | 41% | 1019 hPa | 0 mm | - | 707 W/m² | - |
| 1777830947 | 19.44° C | 42% | 1019 hPa | 0 mm | - | 754 W/m² | - |
| 1777830645 | 19.44° C | 43% | 1018.9 hPa | 0 mm | - | 757 W/m² | - |
| 1777830342 | 18.89° C | 41% | 1019.3 hPa | 0 mm | - | 788 W/m² | - |
| 1777830038 | 19.44° C | 40% | 1019.3 hPa | 0 mm | - | 761 W/m² | - |
| 1777829733 | 18.89° C | 44% | 1019.1 hPa | 0 mm | - | 776 W/m² | - |
| 1777829429 | 18.33° C | 44% | 1019.6 hPa | 0 mm | - | 760 W/m² | - |
| 1777829127 | 18.89° C | 41% | 1019.5 hPa | 0 mm | - | 751 W/m² | - |
| 1777828824 | 18.89° C | 44% | 1019.8 hPa | 0 mm | - | 739 W/m² | - |
| 1777828520 | 18.89° C | 48% | 1019.6 hPa | 0 mm | - | 746 W/m² | - |
| 1777828218 | 18.33° C | 46% | 1019.8 hPa | 0 mm | - | 747 W/m² | - |
| 1777827914 | 18.89° C | 44% | 1020 hPa | 0 mm | - | 743 W/m² | - |
| 1777827612 | 17.78° C | 48% | 1019.9 hPa | 0 mm | - | 759 W/m² | - |
| 1777827309 | 18.33° C | 46% | 1020.1 hPa | 0 mm | - | 724 W/m² | - |
| 1777827005 | 17.78° C | 45% | 1020.4 hPa | 0 mm | - | 704 W/m² | - |
| 1777826702 | 17.78° C | 46% | 1020.4 hPa | 0 mm | - | 722 W/m² | - |
| 1777826399 | 17.78° C | 45% | 1020.4 hPa | 0 mm | - | 683 W/m² | - |
| 1777826096 | 17.78° C | 46% | 1020.4 hPa | 0 mm | - | 658 W/m² | - |
| 1777825792 | 17.22° C | 47% | 1020.4 hPa | 0 mm | - | 613 W/m² | - |
| 1777825490 | 17.22° C | 45% | 1020.5 hPa | 0 mm | - | 682 W/m² | - |
| 1777825187 | 17.22° C | 48% | 1020.6 hPa | 0 mm | - | 702 W/m² | - |
| 1777824884 | 17.22° C | 47% | 1020.8 hPa | 0 mm | - | 709 W/m² | - |
| 1777824580 | 16.67° C | 46% | 1020.6 hPa | 0 mm | - | 709 W/m² | - |
| 1777824277 | 16.67° C | 47% | 1020.8 hPa | 0 mm | - | 752 W/m² | - |
| 1777823973 | 16.67° C | 51% | 1020.6 hPa | 0 mm | - | 744 W/m² | - |
* Rain latest hour (hover to see other rain measurements)
** Current wind speed in m/s (hover to see current wind gust speed)